| time (UTC) | temp C | wind direction | speed KPH | gust KPH | rain 1hr cm | rain 24hr cm | rain mn cm | humidity % | barometer mb |
| 20260506235846 | 6 | 272 | 0.0 | 0.0 | 0.00 | 0.00 | 0.00 | 1 | 1011.7 |
| 20260506235346 | 7 | 272 | 0.0 | 0.0 | 0.00 | 0.00 | 0.00 | 1 | 1011.8 |
| 20260506234846 | 7 | 272 | 0.0 | 0.0 | 0.00 | 0.00 | 0.00 | 1 | 1011.8 |
| 20260506234346 | 7 | 272 | 0.0 | 0.0 | 0.00 | 0.00 | 0.00 | 1 | 1011.8 |
| 20260506233846 | 7 | 272 | 0.0 | 0.0 | 0.00 | 0.00 | 0.00 | 1 | 1011.9 |
| 20260506233346 | 7 | 263 | 0.0 | 0.0 | 0.00 | 0.00 | 0.00 | 1 | 1011.9 |
| 20260506232846 | 7 | 248 | 0.0 | 6.4 | 0.00 | 0.00 | 0.00 | 1 | 1011.9 |
| 20260506232346 | 7 | 264 | 0.0 | 9.7 | 0.00 | 0.00 | 0.00 | 1 | 1012.0 |
| 20260506231846 | 7 | 274 | 3.2 | 6.4 | 0.00 | 0.00 | 0.00 | 1 | 1012.0 |
| 20260506231346 | 7 | 263 | 3.2 | 4.8 | 0.00 | 0.00 | 0.00 | 1 | 1012.0 |
| 20260506230846 | 7 | 278 | 0.0 | 1.6 | 0.00 | 0.00 | 0.00 | 1 | 1012.0 |
| 20260506230346 | 7 | 279 | 1.6 | 3.2 | 0.00 | 0.00 | 0.00 | 1 | 1012.0 |
| 20260506225846 | 7 | 281 | 0.0 | 3.2 | 0.00 | 0.00 | 0.00 | 1 | 1012.0 |
| 20260506225346 | 7 | 278 | 0.0 | 0.0 | 0.00 | 0.00 | 0.00 | 1 | 1012.1 |
| 20260506224846 | 7 | 264 | 0.0 | 3.2 | 0.00 | 0.00 | 0.00 | 1 | 1012.1 |
| 20260506224346 | 7 | 314 | 1.6 | 3.2 | 0.00 | 0.00 | 0.00 | 1 | 1012.2 |
| 20260506223846 | 7 | 271 | 0.0 | 3.2 | 0.00 | 0.00 | 0.00 | 1 | 1012.2 |
| 20260506223346 | 7 | 271 | 0.0 | 3.2 | 0.00 | 0.00 | 0.00 | 1 | 1012.2 |
| 20260506222846 | 7 | 303 | 0.0 | 3.2 | 0.00 | 0.00 | 0.00 | 1 | 1012.2 |
| 20260506222346 | 7 | 302 | 0.0 | 4.8 | 0.00 | 0.00 | 0.00 | 1 | 1012.3 |
| 20260506221846 | 7 | 270 | 1.6 | 4.8 | 0.00 | 0.00 | 0.00 | 1 | 1012.3 |
| 20260506221346 | 7 | 255 | 0.0 | 3.2 | 0.00 | 0.00 | 0.00 | 1 | 1012.3 |
| 20260506220846 | 7 | 298 | 0.0 | 4.8 | 0.00 | 0.00 | 0.00 | 1 | 1012.4 |
| 20260506220346 | 7 | 264 | 0.0 | 3.2 | 0.00 | 0.00 | 0.00 | 1 | 1012.4 |
| 20260506215846 | 7 | 274 | 0.0 | 4.8 | 0.00 | 0.00 | 0.00 | 1 | 1012.4 |
| 20260506215346 | 7 | 307 | 1.6 | 8.0 | 0.00 | 0.00 | 0.00 | 1 | 1012.5 |
| 20260506214846 | 7 | 288 | 3.2 | 11.3 | 0.00 | 0.00 | 0.00 | 1 | 1012.5 |
| 20260506214346 | 7 | 256 | 3.2 | 11.3 | 0.00 | 0.00 | 0.00 | 1 | 1012.4 |
| 20260506213846 | 7 | 296 | 1.6 | 9.7 | 0.00 | 0.00 | 0.00 | 1 | 1012.5 |
| 20260506213346 | 8 | 264 | 0.0 | 8.0 | 0.00 | 0.00 | 0.00 | 1 | 1012.4 |
| 20260506212846 | 8 | 288 | 3.2 | 4.8 | 0.00 | 0.00 | 0.00 | 1 | 1012.5 |
| 20260506212346 | 8 | 273 | 0.0 | 8.0 | 0.00 | 0.00 | 0.00 | 1 | 1012.6 |
| 20260506211846 | 8 | 262 | 0.0 | 8.0 | 0.00 | 0.00 | 0.00 | 1 | 1012.6 |
| 20260506211346 | 8 | 276 | 0.0 | 4.8 | 0.00 | 0.00 | 0.00 | 1 | 1012.6 |
| 20260506210846 | 8 | 293 | 3.2 | 9.7 | 0.00 | 0.00 | 0.00 | 1 | 1012.6 |
| 20260506210346 | 8 | 223 | 1.6 | 8.0 | 0.00 | 0.00 | 0.00 | 1 | 1012.6 |
| 20260506205846 | 8 | 270 | 1.6 | 4.8 | 0.00 | 0.00 | 0.00 | 1 | 1012.5 |
| 20260506205346 | 8 | 303 | 3.2 | 4.8 | 0.00 | 0.00 | 0.00 | 1 | 1012.6 |
| 20260506204846 | 8 | 2 | 0.0 | 4.8 | 0.00 | 0.00 | 0.00 | 1 | 1012.5 |
| 20260506204346 | 8 | 310 | 0.0 | 4.8 | 0.00 | 0.00 | 0.00 | 1 | 1012.4 |
| 20260506203846 | 8 | 258 | 0.0 | 8.0 | 0.00 | 0.00 | 0.00 | 1 | 1012.3 |
| 20260506203346 | 8 | 316 | 0.0 | 9.7 | 0.00 | 0.00 | 0.00 | 1 | 1012.4 |
| 20260506202846 | 8 | 300 | 4.8 | 8.0 | 0.00 | 0.00 | 0.00 | 1 | 1012.3 |
| 20260506202346 | 8 | 276 | 3.2 | 11.3 | 0.00 | 0.00 | 0.00 | 1 | 1012.3 |
| 20260506201846 | 8 | 310 | 1.6 | 8.0 | 0.00 | 0.00 | 0.00 | 1 | 1012.3 |
| 20260506201346 | 9 | 258 | 1.6 | 6.4 | 0.00 | 0.00 | 0.00 | 1 | 1012.2 |
| 20260506200846 | 9 | 326 | 1.6 | 9.7 | 0.00 | 0.00 | 0.00 | 1 | 1012.2 |
| 20260506200346 | 9 | 298 | 3.2 | 6.4 | 0.00 | 0.00 | 0.00 | 1 | 1012.1 |
| 20260506195846 | 9 | 240 | 3.2 | 3.2 | 0.00 | 0.00 | 0.00 | 1 | 1012.1 |
| 20260506195346 | 10 | 255 | 0.0 | 8.0 | 0.00 | 0.00 | 0.00 | 1 | 1012.1 |
| 20260506194846 | 10 | 221 | 0.0 | 1.6 | 0.00 | 0.00 | 0.00 | 2 | 1011.9 |
| 20260506194346 | 10 | 297 | 0.0 | 8.0 | 0.00 | 0.00 | 0.00 | 6 | 1011.9 |
| 20260506193846 | 10 | 291 | 0.0 | 3.2 | 0.00 | 0.00 | 0.00 | 10 | 1011.8 |
| 20260506193346 | 10 | 278 | 3.2 | 3.2 | 0.00 | 0.00 | 0.00 | 15 | 1011.8 |
| 20260506192846 | 11 | 277 | 0.0 | 3.2 | 0.00 | 0.00 | 0.00 | 20 | 1011.8 |
| 20260506192346 | 11 | 323 | 0.0 | 0.0 | 0.00 | 0.00 | 0.00 | 28 | 1011.6 |
| 20260506191846 | 11 | 323 | 0.0 | 4.8 | 0.00 | 0.00 | 0.00 | 36 | 1011.7 |
| 20260506191346 | 11 | 11 | 1.6 | 3.2 | 0.00 | 0.00 | 0.00 | 43 | 1011.6 |
| 20260506190846 | 11 | 240 | 0.0 | 0.0 | 0.00 | 0.00 | 0.00 | 46 | 1011.6 |
| 20260506190346 | 11 | 240 | 0.0 | 0.0 | 0.00 | 0.00 | 0.00 | 48 | 1011.5 |
| 20260506185846 | 11 | 240 | 0.0 | 0.0 | 0.00 | 0.00 | 0.00 | 48 | 1011.5 |
| 20260506185346 | 11 | 240 | 0.0 | 0.0 | 0.00 | 0.00 | 0.00 | 46 | 1011.5 |
| 20260506184846 | 11 | 240 | 0.0 | 0.0 | 0.00 | 0.00 | 0.00 | 46 | 1011.5 |
| 20260506184346 | 12 | 240 | 0.0 | 0.0 | 0.00 | 0.00 | 0.00 | 43 | 1011.5 |
| 20260506183846 | 12 | 240 | 0.0 | 1.6 | 0.00 | 0.00 | 0.00 | 45 | 1011.5 |
| 20260506183346 | 12 | 167 | 0.0 | 0.0 | 0.00 | 0.00 | 0.00 | 47 | 1011.5 |
| 20260506182846 | 12 | 114 | 0.0 | 0.0 | 0.00 | 0.00 | 0.00 | 47 | 1011.4 |
| 20260506182346 | 12 | 114 | 0.0 | 0.0 | 0.00 | 0.00 | 0.00 | 49 | 1011.5 |
| 20260506181846 | 12 | 114 | 0.0 | 3.2 | 0.00 | 0.00 | 0.00 | 50 | 1011.5 |
| 20260506181346 | 12 | 269 | 0.0 | 8.0 | 0.00 | 0.00 | 0.00 | 49 | 1011.6 |
| 20260506180846 | 12 | 110 | 0.0 | 14.5 | 0.00 | 0.00 | 0.00 | 50 | 1011.6 |
| 20260506180346 | 12 | 113 | 8.0 | 12.9 | 0.00 | 0.00 | 0.00 | 50 | 1011.7 |
| 20260506175846 | 13 | 183 | 0.0 | 3.2 | 0.00 | 0.00 | 0.00 | 50 | 1011.7 |
| 20260506175346 | 13 | 198 | 3.2 | 3.2 | 0.00 | 0.00 | 0.00 | 50 | 1011.7 |
| 20260506174846 | 13 | 243 | 0.0 | 3.2 | 0.00 | 0.00 | 0.00 | 50 | 1011.7 |
| 20260506174346 | 13 | 255 | 1.6 | 1.6 | 0.00 | 0.00 | 0.00 | 49 | 1011.6 |
| 20260506173846 | 13 | 253 | 0.0 | 4.8 | 0.00 | 0.00 | 0.00 | 49 | 1011.6 |
| 20260506173346 | 13 | 256 | 0.0 | 9.7 | 0.00 | 0.00 | 0.00 | 49 | 1011.6 |
| 20260506172846 | 13 | 327 | 4.8 | 8.0 | 0.00 | 0.00 | 0.00 | 49 | 1011.6 |
| 20260506172346 | 13 | 266 | 4.8 | 11.3 | 0.00 | 0.00 | 0.00 | 48 | 1011.6 |
| 20260506171846 | 13 | 268 | 0.0 | 6.4 | 0.00 | 0.00 | 0.00 | 48 | 1011.5 |
| 20260506171346 | 13 | 339 | 6.4 | 11.3 | 0.00 | 0.00 | 0.00 | 49 | 1011.6 |
| 20260506170846 | 13 | 303 | 6.4 | 9.7 | 0.00 | 0.00 | 0.00 | 48 | 1011.6 |
| 20260506170346 | 13 | 276 | 0.0 | 14.5 | 0.00 | 0.00 | 0.00 | 48 | 1011.6 |
| 20260506165846 | 13 | 340 | 6.4 | 12.9 | 0.00 | 0.00 | 0.00 | 48 | 1011.6 |
| 20260506165346 | 13 | 297 | 3.2 | 9.7 | 0.00 | 0.00 | 0.00 | 47 | 1011.5 |
| 20260506164846 | 13 | 267 | 3.2 | 8.0 | 0.00 | 0.00 | 0.00 | 47 | 1011.5 |
| 20260506164346 | 12 | 285 | 1.6 | 12.9 | 0.00 | 0.00 | 0.00 | 48 | 1011.5 |
| 20260506163846 | 13 | 299 | 4.8 | 12.9 | 0.00 | 0.00 | 0.00 | 46 | 1011.6 |
| 20260506163346 | 12 | 267 | 4.8 | 11.3 | 0.00 | 0.00 | 0.00 | 45 | 1011.5 |
| 20260506162846 | 12 | 271 | 3.2 | 12.9 | 0.00 | 0.00 | 0.00 | 42 | 1011.4 |
| 20260506162346 | 12 | 303 | 3.2 | 11.3 | 0.00 | 0.03 | 0.00 | 42 | 1011.4 |
| 20260506161846 | 11 | 272 | 3.2 | 12.9 | 0.00 | 0.05 | 0.00 | 24 | 1011.4 |
| 20260506161346 | 11 | 304 | 9.7 | 11.3 | 0.00 | 0.10 | 0.00 | 32 | 1011.4 |
| 20260506160846 | 11 | 288 | 4.8 | 9.7 | 0.00 | 0.10 | 0.00 | 37 | 1011.4 |
| 20260506160346 | 11 | 277 | 8.0 | 8.0 | 0.00 | 0.10 | 0.00 | 45 | 1011.6 |
| 20260506155846 | 12 | 316 | 3.2 | 12.9 | 0.00 | 0.10 | 0.00 | 47 | 1011.6 |
| 20260506155346 | 12 | 271 | 6.4 | 16.1 | 0.00 | 0.10 | 0.00 | 49 | 1011.6 |
| 20260506154846 | 12 | 276 | 4.8 | 14.5 | 0.00 | 0.10 | 0.00 | 50 | 1011.6 |
| 20260506154346 | 12 | 212 | 4.8 | 17.7 | 0.00 | 0.10 | 0.00 | 51 | 1011.6 |
| 20260506153846 | 12 | 305 | 8.0 | 17.7 | 0.00 | 0.10 | 0.00 | 52 | 1011.6 |
| 20260506153346 | 12 | 275 | 1.6 | 12.9 | 0.00 | 0.10 | 0.00 | 51 | 1011.6 |
| 20260506152846 | 13 | 261 | 8.0 | 9.7 | 0.00 | 0.10 | 0.00 | 51 | 1011.6 |
| 20260506152346 | 13 | 307 | 4.8 | 11.3 | 0.00 | 0.10 | 0.00 | 51 | 1011.6 |
| 20260506151846 | 13 | 340 | 3.2 | 11.3 | 0.00 | 0.10 | 0.00 | 51 | 1011.6 |
| 20260506151346 | 13 | 339 | 6.4 | 6.4 | 0.00 | 0.10 | 0.00 | 51 | 1011.6 |
| 20260506150846 | 13 | 278 | 1.6 | 9.7 | 0.00 | 0.10 | 0.00 | 51 | 1011.7 |
| 20260506150346 | 14 | 299 | 0.0 | 9.7 | 0.00 | 0.10 | 0.00 | 50 | 1011.7 |
| 20260506145846 | 14 | 240 | 1.6 | 6.4 | 0.00 | 0.10 | 0.00 | 50 | 1011.7 |
| 20260506145346 | 14 | 305 | 3.2 | 9.7 | 0.00 | 0.10 | 0.00 | 50 | 1011.7 |
| 20260506144846 | 15 | 254 | 3.2 | 9.7 | 0.00 | 0.10 | 0.00 | 49 | 1011.7 |
| 20260506144346 | 15 | 272 | 3.2 | 8.0 | 0.00 | 0.10 | 0.00 | 48 | 1011.7 |
| 20260506143846 | 16 | 271 | 0.0 | 4.8 | 0.00 | 0.10 | 0.00 | 49 | 1011.8 |
| 20260506143346 | 16 | 331 | 1.6 | 8.0 | 0.00 | 0.10 | 0.00 | 49 | 1011.8 |
| 20260506142846 | 16 | 302 | 6.4 | 11.3 | 0.00 | 0.10 | 0.00 | 49 | 1011.7 |
| 20260506142346 | 16 | 242 | 1.6 | 11.3 | 0.00 | 0.10 | 0.00 | 48 | 1011.7 |
| 20260506141846 | 16 | 317 | 0.0 | 4.8 | 0.00 | 0.10 | 0.00 | 48 | 1011.7 |
| 20260506141346 | 16 | 46 | 0.0 | 8.0 | 0.00 | 0.10 | 0.00 | 48 | 1011.7 |
| 20260506140846 | 16 | 76 | 4.8 | 4.8 | 0.00 | 0.10 | 0.00 | 48 | 1011.7 |
| 20260506140346 | 16 | 257 | 0.0 | 9.7 | 0.00 | 0.10 | 0.00 | 48 | 1011.8 |
| 20260506135846 | 16 | 354 | 1.6 | 8.0 | 0.00 | 0.15 | 0.00 | 48 | 1011.7 |
| 20260506135346 | 15 | 55 | 1.6 | 6.4 | 0.00 | 0.18 | 0.00 | 48 | 1011.8 |
| 20260506134846 | 15 | 340 | 3.2 | 9.7 | 0.00 | 0.18 | 0.00 | 47 | 1011.8 |
| 20260506134346 | 16 | 314 | 0.0 | 4.8 | 0.00 | 0.18 | 0.00 | 47 | 1011.9 |
| 20260506133846 | 15 | 37 | 0.0 | 3.2 | 0.00 | 0.18 | 0.00 | 47 | 1011.8 |
| 20260506133346 | 14 | 351 | 0.0 | 6.4 | 0.00 | 0.20 | 0.00 | 49 | 1011.9 |
| 20260506132846 | 14 | 342 | 0.0 | 4.8 | 0.00 | 0.20 | 0.00 | 49 | 1012.0 |
| 20260506132346 | 14 | 290 | 1.6 | 4.8 | 0.00 | 0.20 | 0.00 | 49 | 1012.1 |
| 20260506131846 | 14 | 275 | 0.0 | 8.0 | 0.00 | 0.20 | 0.00 | 49 | 1012.1 |
| 20260506131346 | 14 | 334 | 1.6 | 4.8 | 0.00 | 0.20 | 0.00 | 48 | 1012.1 |
| 20260506130846 | 13 | 263 | 1.6 | 4.8 | 0.00 | 0.20 | 0.00 | 48 | 1012.1 |
| 20260506130346 | 13 | 324 | 0.0 | 6.4 | 0.00 | 0.20 | 0.00 | 48 | 1012.1 |
| 20260506125846 | 13 | 52 | 0.0 | 3.2 | 0.00 | 0.20 | 0.00 | 48 | 1012.1 |
| 20260506125346 | 14 | 329 | 0.0 | 1.6 | 0.00 | 0.20 | 0.00 | 48 | 1012.2 |
| 20260506124846 | 14 | 339 | 1.6 | 4.8 | 0.00 | 0.20 | 0.00 | 47 | 1012.2 |
| 20260506124346 | 15 | 319 | 0.0 | 4.8 | 0.00 | 0.20 | 0.00 | 46 | 1012.2 |
| 20260506123846 | 15 | 126 | 0.0 | 3.2 | 0.00 | 0.20 | 0.00 | 45 | 1012.2 |
| 20260506123346 | 14 | 24 | 0.0 | 9.7 | 0.00 | 0.20 | 0.00 | 46 | 1012.3 |
| 20260506122846 | 14 | 44 | 0.0 | 4.8 | 0.00 | 0.20 | 0.00 | 45 | 1012.4 |
| 20260506122346 | 14 | 29 | 0.0 | 6.4 | 0.00 | 0.20 | 0.00 | 46 | 1012.5 |
| 20260506121846 | 14 | 40 | 0.0 | 3.2 | 0.00 | 0.20 | 0.00 | 46 | 1012.6 |
| 20260506121346 | 15 | 332 | 0.0 | 3.2 | 0.00 | 0.20 | 0.00 | 44 | 1012.6 |
| 20260506120846 | 14 | 43 | 1.6 | 11.3 | 0.00 | 0.20 | 0.00 | 44 | 1012.6 |
| 20260506120346 | 14 | 11 | 1.6 | 6.4 | 0.00 | 0.20 | 0.00 | 45 | 1012.7 |
| 20260506115846 | 13 | 8 | 0.0 | 4.8 | 0.00 | 0.20 | 0.00 | 46 | 1012.8 |
| 20260506115346 | 14 | 325 | 3.2 | 8.0 | 0.00 | 0.20 | 0.00 | 46 | 1012.7 |
| 20260506114846 | 14 | 330 | 0.0 | 9.7 | 0.00 | 0.20 | 0.00 | 43 | 1012.7 |
| 20260506114346 | 14 | 286 | 1.6 | 8.0 | 0.00 | 0.20 | 0.00 | 45 | 1012.8 |
| 20260506113846 | 14 | 334 | 1.6 | 9.7 | 0.00 | 0.20 | 0.00 | 45 | 1012.9 |
| 20260506113346 | 14 | 268 | 0.0 | 4.8 | 0.00 | 0.20 | 0.00 | 44 | 1012.9 |
| 20260506112846 | 13 | 15 | 0.0 | 3.2 | 0.00 | 0.20 | 0.00 | 43 | 1012.9 |
| 20260506112346 | 13 | 79 | 0.0 | 3.2 | 0.00 | 0.20 | 0.00 | 44 | 1012.9 |
| 20260506111846 | 12 | 109 | 0.0 | 4.8 | 0.00 | 0.20 | 0.00 | 46 | 1013.0 |
| 20260506111346 | 13 | 31 | 0.0 | 6.4 | 0.00 | 0.20 | 0.00 | 44 | 1013.1 |
| 20260506110846 | 12 | 41 | 0.0 | 3.2 | 0.00 | 0.20 | 0.00 | 41 | 1013.1 |
| 20260506110346 | 12 | 328 | 0.0 | 3.2 | 0.00 | 0.20 | 0.00 | 42 | 1013.1 |
| 20260506105846 | 12 | 101 | 0.0 | 3.2 | 0.00 | 0.20 | 0.00 | 46 | 1013.1 |
| 20260506105346 | 12 | 17 | 0.0 | 0.0 | 0.00 | 0.20 | 0.00 | 43 | 1013.1 |
| 20260506104846 | 11 | 323 | 0.0 | 0.0 | 0.00 | 0.20 | 0.00 | 45 | 1013.1 |
| 20260506104346 | 11 | 323 | 0.0 | 0.0 | 0.00 | 0.20 | 0.00 | 43 | 1013.1 |
| 20260506103846 | 11 | 323 | 0.0 | 6.4 | 0.00 | 0.20 | 0.00 | 43 | 1013.2 |
| 20260506103346 | 11 | 311 | 0.0 | 3.2 | 0.00 | 0.20 | 0.00 | 40 | 1013.3 |
| 20260506102846 | 11 | 63 | 1.6 | 1.6 | 0.00 | 0.20 | 0.00 | 40 | 1013.2 |
| 20260506102346 | 11 | 41 | 0.0 | 0.0 | 0.00 | 0.20 | 0.00 | 36 | 1013.2 |
| 20260506101846 | 11 | 313 | 0.0 | 4.8 | 0.00 | 0.20 | 0.00 | 41 | 1013.2 |
| 20260506101346 | 12 | 8 | 0.0 | 3.2 | 0.00 | 0.20 | 0.00 | 39 | 1013.2 |
| 20260506100846 | 12 | 333 | 0.0 | 3.2 | 0.00 | 0.20 | 0.00 | 42 | 1013.2 |
| 20260506100346 | 12 | 237 | 0.0 | 4.8 | 0.00 | 0.20 | 0.00 | 43 | 1013.2 |
| 20260506095846 | 12 | 56 | 0.0 | 4.8 | 0.00 | 0.20 | 0.00 | 29 | 1013.3 |
| 20260506095346 | 12 | 130 | 1.6 | 3.2 | 0.00 | 0.20 | 0.00 | 19 | 1013.3 |
| 20260506094846 | 11 | 95 | 0.0 | 4.8 | 0.00 | 0.20 | 0.00 | 29 | 1013.3 |
| 20260506094346 | 11 | 65 | 0.0 | 3.2 | 0.00 | 0.20 | 0.00 | 23 | 1013.3 |
| 20260506093846 | 10 | 135 | 3.2 | 4.8 | 0.00 | 0.20 | 0.00 | 22 | 1013.2 |
| 20260506093346 | 10 | 85 | 4.8 | 4.8 | 0.00 | 0.20 | 0.00 | 25 | 1013.3 |
| 20260506092846 | 11 | 100 | 1.6 | 3.2 | 0.00 | 0.20 | 0.00 | 19 | 1013.2 |
| 20260506092346 | 10 | 90 | 0.0 | 4.8 | 0.00 | 0.20 | 0.00 | 17 | 1013.3 |
| 20260506091846 | 10 | 179 | 0.0 | 6.4 | 0.00 | 0.20 | 0.00 | 8 | 1013.1 |
| 20260506091346 | 10 | 64 | 1.6 | 6.4 | 0.00 | 0.20 | 0.00 | 7 | 1013.1 |
| 20260506090846 | 10 | 103 | 0.0 | 0.0 | 0.00 | 0.20 | 0.00 | 14 | 1013.1 |
| 20260506090346 | 10 | 227 | 0.0 | 4.8 | 0.00 | 0.20 | 0.00 | 4 | 1013.1 |
| 20260506085846 | 10 | 143 | 0.0 | 3.2 | 0.00 | 0.20 | 0.00 | 1 | 1013.2 |
| 20260506085346 | 10 | 254 | 0.0 | 1.6 | 0.00 | 0.23 | 0.00 | 1 | 1013.2 |
| 20260506084846 | 10 | 58 | 0.0 | 1.6 | 0.00 | 0.23 | 0.00 | 1 | 1013.2 |
| 20260506084346 | 9 | 24 | 0.0 | 0.0 | 0.00 | 0.23 | 0.00 | 1 | 1013.2 |
| 20260506083846 | 8 | 239 | 0.0 | 1.6 | 0.00 | 0.23 | 0.00 | 1 | 1013.3 |
| 20260506083346 | 8 | 290 | 0.0 | 1.6 | 0.00 | 0.23 | 0.00 | 1 | 1013.2 |
| 20260506082846 | 8 | 251 | 0.0 | 0.0 | 0.00 | 0.23 | 0.00 | 1 | 1013.2 |
| 20260506082346 | 8 | 297 | 0.0 | 0.0 | 0.00 | 0.23 | 0.00 | 1 | 1013.2 |
| 20260506081846 | 8 | 347 | 0.0 | 0.0 | 0.00 | 0.23 | 0.00 | 1 | 1013.3 |
| 20260506081346 | 8 | 38 | 0.0 | 0.0 | 0.00 | 0.23 | 0.00 | 1 | 1013.3 |
| 20260506080846 | 8 | 28 | 0.0 | 0.0 | 0.00 | 0.23 | 0.00 | 1 | 1013.3 |
| 20260506080346 | 8 | 326 | 0.0 | 0.0 | 0.00 | 0.23 | 0.00 | 1 | 1013.2 |
| 20260506073346 | 8 | 4 | 0.0 | 0.0 | 0.00 | 0.23 | 0.00 | 1 | 1013.1 |
| 20260506072846 | 8 | 10 | 0.0 | 0.0 | 0.00 | 0.23 | 0.00 | 1 | 1013.2 |
| 20260506072346 | 8 | 54 | 0.0 | 0.0 | 0.00 | 0.23 | 0.00 | 1 | 1013.2 |
| 20260506071846 | 8 | 54 | 0.0 | 0.0 | 0.00 | 0.23 | 0.00 | 1 | 1013.1 |
| 20260506071346 | 8 | 54 | 0.0 | 1.6 | 0.00 | 0.23 | 0.00 | 1 | 1013.0 |
| 20260506070846 | 8 | 59 | 0.0 | 0.0 | 0.00 | 0.23 | 0.00 | 1 | 1013.0 |
| 20260506070346 | 8 | 47 | 0.0 | 0.0 | 0.00 | 0.23 | 0.00 | 1 | 1013.0 |
| 20260506062346 | 7 | 322 | 0.0 | 0.0 | 0.00 | 0.23 | 0.00 | 1 | 1012.9 |
| 20260506061846 | 7 | 323 | 0.0 | 1.6 | 0.00 | 0.25 | 0.00 | 1 | 1012.9 |
| 20260506061346 | 6 | 323 | 0.0 | 0.0 | 0.00 | 0.25 | 0.00 | 1 | 1012.9 |
| 20260506060846 | 6 | 323 | 0.0 | 1.6 | 0.00 | 0.25 | 0.00 | 1 | 1012.9 |
| 20260506060346 | 6 | 296 | 0.0 | 0.0 | 0.00 | 0.25 | 0.00 | 1 | 1012.9 |
| 20260506051346 | 5 | 309 | 0.0 | 0.0 | 0.00 | 0.25 | 0.00 | 1 | 1013.0 |
| 20260506050846 | 4 | 309 | 0.0 | 0.0 | 0.00 | 0.25 | 0.00 | 1 | 1013.0 |
| 20260506050346 | 5 | 309 | 0.0 | 0.0 | 0.00 | 0.25 | 0.00 | 1 | 1013.0 |
| 20260506044846 | 5 | 309 | 0.0 | 0.0 | 0.00 | 0.25 | 0.00 | 1 | 1013.0 |
| 20260506044346 | 5 | 309 | 0.0 | 0.0 | 0.00 | 0.25 | 0.00 | 1 | 1013.0 |
| 20260506043846 | 5 | 309 | 0.0 | 1.6 | 0.00 | 0.25 | 0.00 | 1 | 1013.0 |
| 20260506043346 | 5 | 310 | 0.0 | 3.2 | 0.00 | 0.25 | 0.00 | 1 | 1013.0 |
| 20260506042846 | 5 | 264 | 1.6 | 3.2 | 0.00 | 0.25 | 0.00 | 1 | 1013.0 |
| 20260506042346 | 5 | 331 | 0.0 | 0.0 | 0.00 | 0.25 | 0.00 | 1 | 1013.0 |
| 20260506041846 | 5 | 332 | 0.0 | 0.0 | 0.00 | 0.25 | 0.00 | 1 | 1013.0 |
| 20260506041346 | 5 | 331 | 0.0 | 0.0 | 0.00 | 0.25 | 0.00 | 1 | 1013.1 |
| 20260506040846 | 5 | 332 | 0.0 | 3.2 | 0.00 | 0.25 | 0.00 | 1 | 1013.1 |
| 20260506040346 | 5 | 262 | 0.0 | 0.0 | 0.00 | 0.25 | 0.00 | 1 | 1013.2 |
| 20260506035846 | 5 | 261 | 0.0 | 1.6 | 0.00 | 0.25 | 0.00 | 1 | 1013.2 |
| 20260506035346 | 5 | 258 | 0.0 | 0.0 | 0.00 | 0.25 | 0.00 | 1 | 1013.3 |
| 20260506034846 | 5 | 258 | 0.0 | 0.0 | 0.00 | 0.25 | 0.00 | 1 | 1013.3 |
| 20260506034346 | 5 | 258 | 0.0 | 0.0 | 0.00 | 0.25 | 0.00 | 1 | 1013.3 |
| 20260506033846 | 5 | 258 | 0.0 | 0.0 | 0.00 | 0.25 | 0.00 | 1 | 1013.4 |
| 20260506033346 | 5 | 258 | 0.0 | 0.0 | 0.00 | 0.25 | 0.00 | 1 | 1013.5 |
| 20260506032846 | 6 | 258 | 0.0 | 0.0 | 0.00 | 0.25 | 0.00 | 1 | 1013.6 |
| 20260506032346 | 6 | 258 | 0.0 | 0.0 | 0.00 | 0.25 | 0.00 | 1 | 1013.6 |
| 20260506031846 | 6 | 258 | 0.0 | 3.2 | 0.00 | 0.25 | 0.00 | 1 | 1013.6 |
| 20260506031346 | 6 | 278 | 0.0 | 1.6 | 0.00 | 0.25 | 0.00 | 1 | 1013.6 |
| 20260506030846 | 6 | 271 | 0.0 | 0.0 | 0.00 | 0.25 | 0.00 | 1 | 1013.7 |
| 20260506030346 | 6 | 271 | 0.0 | 0.0 | 0.00 | 0.25 | 0.00 | 1 | 1013.7 |
| 20260506025846 | 6 | 271 | 0.0 | 1.6 | 0.00 | 0.25 | 0.00 | 1 | 1013.7 |
| 20260506025346 | 6 | 276 | 0.0 | 0.0 | 0.00 | 0.25 | 0.00 | 1 | 1013.7 |
| 20260506024846 | 6 | 301 | 0.0 | 0.0 | 0.00 | 0.25 | 0.00 | 1 | 1013.7 |
| 20260506024346 | 6 | 324 | 0.0 | 0.0 | 0.00 | 0.25 | 0.00 | 1 | 1013.7 |
| 20260506023846 | 6 | 324 | 0.0 | 1.6 | 0.00 | 0.25 | 0.00 | 1 | 1013.7 |
| 20260506023346 | 6 | 324 | 0.0 | 4.8 | 0.00 | 0.25 | 0.00 | 1 | 1013.8 |
| 20260506022846 | 6 | 293 | 0.0 | 1.6 | 0.00 | 0.25 | 0.00 | 1 | 1013.8 |
| 20260506022346 | 6 | 293 | 0.0 | 0.0 | 0.00 | 0.25 | 0.00 | 1 | 1013.9 |
| 20260506021846 | 6 | 292 | 0.0 | 0.0 | 0.00 | 0.25 | 0.00 | 1 | 1013.9 |
| 20260506021346 | 6 | 292 | 0.0 | 3.2 | 0.00 | 0.25 | 0.00 | 1 | 1014.0 |
| 20260506020846 | 6 | 289 | 0.0 | 1.6 | 0.00 | 0.25 | 0.00 | 1 | 1013.8 |
| 20260506020346 | 6 | 289 | 0.0 | 1.6 | 0.00 | 0.25 | 0.00 | 1 | 1013.9 |
| 20260506015846 | 6 | 276 | 0.0 | 4.8 | 0.00 | 0.25 | 0.00 | 1 | 1014.0 |
| 20260506015346 | 6 | 253 | 0.0 | 1.6 | 0.00 | 0.25 | 0.00 | 1 | 1014.1 |
| 20260506014846 | 6 | 250 | 0.0 | 3.2 | 0.00 | 0.25 | 0.00 | 1 | 1014.1 |
| 20260506014346 | 6 | 285 | 0.0 | 3.2 | 0.00 | 0.25 | 0.00 | 1 | 1014.1 |
| 20260506013846 | 6 | 269 | 0.0 | 0.0 | 0.00 | 0.25 | 0.00 | 1 | 1014.1 |
| 20260506013346 | 6 | 274 | 0.0 | 1.6 | 0.00 | 0.25 | 0.00 | 1 | 1014.1 |
| 20260506012846 | 6 | 291 | 0.0 | 0.0 | 0.00 | 0.25 | 0.00 | 1 | 1014.2 |
| 20260506012346 | 6 | 302 | 0.0 | 1.6 | 0.00 | 0.25 | 0.00 | 1 | 1014.3 |
| 20260506011846 | 6 | 311 | 1.6 | 4.8 | 0.00 | 0.25 | 0.00 | 1 | 1014.3 |
| 20260506011346 | 6 | 263 | 0.0 | 3.2 | 0.00 | 0.25 | 0.00 | 1 | 1014.4 |
| 20260506010846 | 6 | 311 | 1.6 | 4.8 | 0.00 | 0.25 | 0.00 | 1 | 1014.5 |
| 20260506010346 | 6 | 249 | 0.0 | 4.8 | 0.00 | 0.25 | 0.00 | 1 | 1014.5 |
| 20260506005846 | 6 | 262 | 0.0 | 6.4 | 0.00 | 0.25 | 0.00 | 1 | 1014.6 |
| 20260506005346 | 6 | 257 | 0.0 | 4.8 | 0.00 | 0.25 | 0.00 | 1 | 1014.6 |
| 20260506004846 | 6 | 293 | 0.0 | 4.8 | 0.00 | 0.25 | 0.00 | 1 | 1014.6 |
| 20260506004346 | 6 | 276 | 0.0 | 4.8 | 0.00 | 0.25 | 0.00 | 1 | 1014.7 |
| 20260506003846 | 6 | 302 | 1.6 | 4.8 | 0.00 | 0.25 | 0.00 | 1 | 1014.8 |
| 20260506003346 | 6 | 268 | 0.0 | 4.8 | 0.00 | 0.25 | 0.00 | 1 | 1014.8 |
| 20260506002846 | 6 | 277 | 1.6 | 6.4 | 0.00 | 0.25 | 0.00 | 1 | 1014.9 |
| 20260506002346 | 6 | 307 | 3.2 | 6.4 | 0.00 | 0.25 | 0.00 | 1 | 1014.9 |
| 20260506001846 | 7 | 257 | 1.6 | 6.4 | 0.00 | 0.25 | 0.00 | 1 | 1014.9 |
| 20260506001346 | 7 | 303 | 1.6 | 6.4 | 0.00 | 0.25 | 0.00 | 1 | 1015.0 |
| 20260506000846 | 7 | 246 | 0.0 | 3.2 | 0.00 | 0.25 | 0.00 | 1 | 1015.0 |
| 20260506000346 | 7 | 276 | 0.0 | 3.2 | 0.00 | 0.25 | 0.00 | 1 | 1015.1 |